Location: Eexterzandvoort
(53.0303°N, 6.7884°E)
Time: 06:12:51
(UTC+00:00)

Cosmos 2150 Rocket - Pass Details

Date: 19 May 2025
Orbit: 745 x 804 km, 74.0° (Epoch: 14 June)

Event Time Altitude Azimuth Distance (km) Brightness Sun altitude
Rises 21:32:21 0° 331° (NNW) 3,292 9.4 -12.7°
Reaches altitude 10° 21:34:46 10° 328° (NNW) 2,367 8.0 -12.9°
Maximum altitude 21:40:02 57° 251° (WSW) 939 4.5 -13.3°
Enters shadow 21:44:07 17° 177° (S) 1,927 5.5 -13.5°
